DW7957 Weather Reports


time (UTC)temp
C
wind
direction
speed
KPH
gust
KPH
rain 1hr
cm
rain 24hr
cm
rain mn
cm
humidity
%
barometer
mb
20260502223718 17 260 8.0 22.5 0.00 0.00 0.00 32 1014.1
20260502222740 17 221 6.4 24.1 0.00 0.00 0.00 30 1014.3
20260502221722 17 213 14.5 24.1 0.00 0.00 0.00 30 1014.3
20260502220717 18 211 8.0 14.5 0.00 0.00 0.00 31 1014.4
20260502215724 18 261 6.4 14.5 0.00 0.00 0.00 31 1014.5
20260502214717 17 251 11.3 22.5 0.00 0.00 0.00 30 1014.7
20260502213732 17 254 9.7 20.9 0.00 0.00 0.00 31 1014.8
20260502212718 17 250 11.3 25.7 0.00 0.00 0.00 31 1015.0
20260502211729 17 229 6.4 16.1 0.00 0.00 0.00 31 1015.1
20260502210718 17 313 9.7 17.7 0.00 0.00 0.00 30 1015.2
20260502205743 17 310 8.0 17.7 0.00 0.00 0.00 30 1015.4
20260502204730 17 246 11.3 25.7 0.00 0.00 0.00 30 1015.6
20260502203733 17 249 8.0 19.3 0.00 0.00 0.00 31 1015.8
20260502202718 16 240 11.3 22.5 0.00 0.00 0.00 31 1015.9
20260502201723 16 226 8.0 17.7 0.00 0.00 0.00 30 1016.0
20260502200719 17 246 3.2 19.3 0.00 0.00 0.00 32 1016.1
20260502195717 16 259 6.4 16.1 0.00 0.00 0.00 32 1016.3
20260502194720 15 221 11.3 19.3 0.00 0.00 0.00 30 1016.4
20260502193754 16 232 8.0 19.3 0.00 0.00 0.00 32 1016.5
20260502192718 16 260 8.0 17.7 0.00 0.00 0.00 31 1016.8
20260502191720 15 255 8.0 22.5 0.00 0.00 0.00 32 1017.0
20260502190717 15 261 12.9 22.5 0.00 0.00 0.00 30 1017.1
20260502185718 15 226 8.0 25.7 0.00 0.00 0.00 33 1017.4
20260502184721 15 297 8.0 22.5 0.00 0.00 0.00 33 1017.4
20260502183718 15 207 6.4 24.1 0.00 0.00 0.00 31 1017.6
20260502182733 14 236 9.7 19.3 0.00 0.00 0.00 34 1017.9
20260502181718 14 234 12.9 24.1 0.00 0.00 0.00 33 1017.9
20260502180734 13 207 9.7 20.9 0.00 0.00 0.00 33 1018.2
20260502163728 12 311 4.8 19.3 0.00 0.00 0.00 37 1019.3
20260502162718 12 234 6.4 17.7 0.00 0.00 0.00 36 1019.4
20260502161733 12 229 6.4 25.7 0.00 0.00 0.00 38 1019.6
20260502160750 12 265 11.3 19.3 0.00 0.00 0.00 36 1019.6
20260502151734 11 237 6.4 20.9 0.00 0.00 0.00 39 1019.9
20260502150736 11 303 4.8 22.5 0.00 0.00 0.00 40 1019.8
20260502130739 6 252 4.8 11.3 0.00 0.00 0.00 57 1020.3
20260502123730 4 304 3.2 8.0 0.00 0.00 0.00 64 1020.2
20260502122723 3 315 4.8 8.0 0.00 0.00 0.00 65 1020.2
20260502121719 3 355 3.2 6.4 0.00 0.00 0.00 66 1020.2
20260502120716 2 360 3.2 6.4 0.00 0.00 0.00 68 1020.1
20260502115716 1 5 0.0 0.0 0.00 0.00 0.00 71 1020.1
20260502114726 0 5 0.0 0.0 0.00 0.00 0.00 74 1020.1
20260502113733 0 5 0.0 0.0 0.00 0.00 0.00 76 1019.9
20260502112734 0 5 0.0 0.0 0.00 0.00 0.00 76 1019.9
20260502111717 0 5 0.0 0.0 0.00 0.00 0.00 75 1019.9
20260502110718 0 5 0.0 0.0 0.00 0.00 0.00 75 1019.8
20260502105726 0 5 0.0 0.0 0.00 0.00 0.00 75 1019.9
20260502104716 0 5 0.0 0.0 0.00 0.00 0.00 75 1019.9
20260502103716 0 5 0.0 0.0 0.00 0.00 0.00 75 1019.9
20260502102717 0 5 0.0 0.0 0.00 0.00 0.00 74 1019.9
20260502101717 0 5 0.0 0.0 0.00 0.00 0.00 74 1019.8
20260502100731 0 5 0.0 0.0 0.00 0.00 0.00 74 1019.8
20260502090716 0 5 0.0 0.0 0.00 0.00 0.00 71 1019.8
20260502070732 2 5 0.0 0.0 0.00 0.00 0.00 64 1020.0
20260502065718 2 5 0.0 0.0 0.00 0.00 0.00 63 1020.1
20260502064716 2 5 0.0 0.0 0.00 0.00 0.00 62 1020.2
20260502063717 3 5 0.0 0.0 0.00 0.00 0.00 61 1020.2
20260502062716 3 5 0.0 0.0 0.00 0.00 0.00 61 1020.2
20260502061716 2 5 0.0 0.0 0.00 0.00 0.00 61 1020.3
20260502060722 3 5 0.0 0.0 0.00 0.00 0.00 61 1020.3
20260502055718 3 5 0.0 0.0 0.00 0.00 0.00 61 1020.2
20260502054735 3 5 0.0 0.0 0.00 0.00 0.00 61 1020.2
20260502053722 3 5 0.0 0.0 0.00 0.00 0.00 60 1020.1
20260502052723 3 5 0.0 0.0 0.00 0.00 0.00 59 1020.2
20260502051755 3 5 0.0 0.0 0.00 0.00 0.00 58 1020.2
20260502050724 3 5 0.0 0.0 0.00 0.00 0.00 57 1020.2
20260502045721 4 5 0.0 0.0 0.00 0.00 0.00 57 1020.1
20260502044718 4 5 0.0 0.0 0.00 0.00 0.00 55 1020.1
20260502043733 4 5 0.0 0.0 0.00 0.00 0.00 55 1020.1
20260502042743 5 5 0.0 0.0 0.00 0.00 0.00 54 1020.1
20260502041737 5 5 0.0 0.0 0.00 0.00 0.00 55 1020.2
20260502040732 5 5 0.0 0.0 0.00 0.00 0.00 56 1020.1
20260502035735 5 5 0.0 0.0 0.00 0.00 0.00 57 1020.1
20260502034734 5 5 0.0 0.0 0.00 0.00 0.00 55 1020.1
20260502033717 5 5 0.0 0.0 0.00 0.00 0.00 55 1020.1
20260502032736 5 5 0.0 0.0 0.00 0.00 0.00 53 1020.2
20260502031735 6 5 0.0 0.0 0.00 0.00 0.00 52 1020.2
20260502030719 6 5 0.0 0.0 0.00 0.00 0.00 50 1020.1
20260502025716 6 5 0.0 0.0 0.00 0.00 0.00 47 1020.0
20260502024716 7 5 0.0 0.0 0.00 0.00 0.00 46 1020.0
20260502023757 7 5 0.0 3.2 0.00 0.00 0.00 45 1020.0
20260502022723 7 5 0.0 3.2 0.00 0.00 0.00 42 1019.9
20260502021732 7 5 1.6 3.2 0.00 0.00 0.00 42 1019.7
20260502020719 7 5 1.6 3.2 0.00 0.00 0.00 42 1019.8
20260502015723 7 5 1.6 6.4 0.00 0.00 0.00 42 1019.7
20260502014722 7 5 3.2 6.4 0.00 0.00 0.00 41 1019.5
20260502013717 8 5 3.2 8.0 0.00 0.00 0.00 39 1019.3
20260502012724 8 5 4.8 12.9 0.00 0.00 0.00 39 1019.3
20260502011722 8 342 4.8 9.7 0.00 0.00 0.00 38 1019.2
20260502010739 8 337 3.2 8.0 0.00 0.00 0.00 38 1019.2
20260502005719 9 327 4.8 22.5 0.00 0.00 0.00 36 1019.1
20260502004717 9 15 8.0 14.5 0.00 0.00 0.00 35 1019.1
20260502003734 9 330 3.2 12.9 0.00 0.00 0.00 35 1018.9
20260502002720 9 321 6.4 12.9 0.00 0.00 0.00 35 1018.9
20260502001756 9 340 8.0 16.1 0.00 0.00 0.00 35 1018.8
20260502000722 10 345 6.4 16.1 0.00 0.00 0.00 34 1018.8
20260501235736 10 336 4.8 14.5 0.00 0.00 0.00 33 1018.8
20260501234716 10 329 8.0 19.3 0.00 0.00 0.00 33 1018.7
20260501233724 10 313 6.4 17.7 0.00 0.00 0.00 33 1018.7
20260501232721 11 316 8.0 16.1 0.00 0.00 0.00 32 1018.7
20260501231716 11 348 9.7 19.3 0.00 0.00 0.00 32 1018.6
20260501230721 10 324 11.3 16.1 0.00 0.00 0.00 32 1018.6
20260501225728 11 315 9.7 20.9 0.00 0.00 0.00 32 1018.5
20260501224726 11 304 8.0 22.5 0.00 0.00 0.00 31 1018.6
20260501223732 11 316 12.9 20.9 0.00 0.00 0.00 31 1018.6